Weather History for Middletown, OH

Change the Weather History Date:

Saturday, February 15, 2014

  Actual Average (KDAY) Record (KDAY)
Temperature  
Mean Temperature 22 °F 31 °F  
Max Temperature 27 °F 39 °F 69 °F (1954)
Min Temperature 17 °F 23 °F -5 °F (2007)
Degree Days  
Heating Degree Days 43 34  
Month to date heating degree days 533  
Since 1 July heating degree days 3856  
Cooling Degree Days 0 0  
Month to date cooling degree days 0  
Year to date cooling degree days 0  
Moisture  
Dew Point 12 °F    
Average Humidity 66    
Maximum Humidity 79    
Minimum Humidity 48    
Precipitation  
Precipitation 0.00 in 0.08 in 1.45 in (1990)
Month to date precipitation 1.21  
Year to date precipitation 3.92  
Snow  
Snow 0.00 in 0.20 in 4.30 in (2003)
Month to date snowfall 3.3  
Since 1 July snowfall 16.7  
Snow Depth -    
Sea Level Pressure  
Sea Level Pressure 30.04 in    
Wind  
Wind Speed 7 mph (NW)    
Max Wind Speed 13 mph    
Max Gust Speed 20 mph    
Visibility 10 miles    
Events Snow    
T = Trace of Precipitation, MM = Missing Value Source: NWS Daily Summary

Daily Weather History Graph

Daily Weather History Graph

Search for Another Location

Airport:

Trip Planner

Search our weather history database for the weather conditions in past years. The results will help you decide how hot, cold, wet, or windy it might be!

Date:

Astronomy

Feb. 15, 2014 Rise Set
Actual Time 7:29 AM EST 6:14 PM EST
Civil Twilight 7:02 AM EST 6:41 PM EST
Nautical Twilight 6:30 AM EST 7:13 PM EST
Astronomical Twilight 5:59 AM EST 7:44 PM EST
Moon 7:12 PM EST (2/15) 7:28 AM EST (2/15)
Length of Visible Light 11h 39m
Length of Day
10h 44m
Full, 100% of the Moon is Illuminated
Feb 15
Full
Feb 22
Last Quarter
Mar 1
New
Mar 8
First Quarter
Mar 16
Full

Hourly Weather History & Observations

Time (EST) Temp. Windchill Dew Point Humidity Pressure Visibility Wind Dir Wind Speed Gust Speed Precip Events Conditions
12:15 AM 21.0 °F 10.6 °F 15.4 °F 79% 29.81 in 3.0 mi North 9.2 mph - N/A   Haze
12:35 AM 20.8 °F 11.2 °F 15.1 °F 78% 29.81 in 2.5 mi North 8.1 mph - N/A Snow Light Snow
12:55 AM 21.0 °F 9.9 °F 15.3 °F 78% 29.83 in 4.0 mi NNW 10.4 mph - N/A Snow Light Snow
1:15 AM 21.0 °F 10.6 °F 14.0 °F 74% 29.83 in 7.0 mi North 9.2 mph - N/A   Overcast
1:35 AM 21.0 °F 11.4 °F 13.1 °F 71% 29.83 in 10.0 mi North 8.1 mph - N/A   Overcast
1:55 AM 20.8 °F 11.2 °F 12.9 °F 71% 29.84 in 10.0 mi North 8.1 mph - N/A   Overcast
2:15 AM 20.3 °F 11.5 °F 12.7 °F 73% 29.85 in 10.0 mi NNW 6.9 mph - N/A   Scattered Clouds
2:35 AM 19.0 °F 11.1 °F 11.5 °F 72% 29.86 in 10.0 mi NW 5.8 mph - N/A   Clear
2:55 AM 18.5 °F 10.4 °F 11.5 °F 74% 29.87 in 10.0 mi NNW 5.8 mph - N/A   Scattered Clouds
3:15 AM 17.6 °F 8.2 °F 10.9 °F 75% 29.88 in 10.0 mi NNW 6.9 mph - N/A   Scattered Clouds
3:35 AM 17.6 °F 8.2 °F 11.1 °F 76% 29.89 in 10.0 mi NW 6.9 mph - N/A   Scattered Clouds
3:55 AM 17.6 °F 9.3 °F 11.1 °F 76% 29.89 in 10.0 mi NW 5.8 mph - N/A   Mostly Cloudy
4:15 AM 18.5 °F 10.4 °F 11.5 °F 74% 29.90 in 10.0 mi NW 5.8 mph - N/A   Overcast
4:35 AM 19.0 °F 11.1 °F 12.0 °F 74% 29.91 in 10.0 mi NW 5.8 mph - N/A Snow Light Snow
4:55 AM 19.0 °F 12.3 °F 12.0 °F 74% 29.93 in 10.0 mi NW 4.6 mph - N/A Snow Light Snow
5:15 AM 19.2 °F 12.5 °F 12.2 °F 74% 29.94 in 10.0 mi NW 4.6 mph - N/A Snow Light Snow
5:35 AM 20.3 °F 11.5 °F 13.1 °F 74% 29.96 in 10.0 mi NW 6.9 mph - N/A Snow Light Snow
5:55 AM 20.3 °F 11.5 °F 12.9 °F 73% 29.97 in 10.0 mi NW 6.9 mph - N/A   Overcast
6:15 AM 20.7 °F 10.2 °F 12.9 °F 72% 29.99 in 10.0 mi NW 9.2 mph - N/A   Overcast
6:35 AM 20.3 °F 9.0 °F 12.9 °F 73% 30.00 in 10.0 mi NW 10.4 mph 17.3 mph N/A   Overcast
6:55 AM 20.3 °F 9.8 °F 12.9 °F 73% 30.00 in 10.0 mi NW 9.2 mph - N/A Snow Light Snow
7:15 AM 19.4 °F 9.5 °F 12.0 °F 73% 30.02 in 10.0 mi NW 8.1 mph - N/A   Overcast
7:35 AM 19.0 °F 10.0 °F 12.0 °F 74% 30.02 in 10.0 mi NNW 6.9 mph - N/A   Mostly Cloudy
7:55 AM 17.6 °F 9.3 °F 10.9 °F 75% 30.03 in 10.0 mi NW 5.8 mph - N/A   Scattered Clouds
8:15 AM 17.6 °F 12.3 °F 11.1 °F 76% 30.04 in 10.0 mi NNW 3.5 mph - N/A   Clear
8:35 AM 17.6 °F - 11.1 °F 76% 30.05 in 10.0 mi Calm Calm - N/A   Clear
8:55 AM 19.0 °F 10.0 °F 11.8 °F 74% 30.06 in 10.0 mi NW 6.9 mph - N/A   Clear
9:15 AM 20.3 °F 11.5 °F 12.2 °F 71% 30.07 in 10.0 mi NW 6.9 mph - N/A   Clear
9:35 AM 21.0 °F 9.9 °F 11.7 °F 67% 30.08 in 10.0 mi NW 10.4 mph 16.1 mph N/A   Clear
9:55 AM 21.0 °F 12.4 °F 11.3 °F 66% 30.09 in 10.0 mi NNW 6.9 mph - N/A   Clear
10:15 AM 21.6 °F 14.0 °F 11.5 °F 65% 30.09 in 10.0 mi WNW 5.8 mph - N/A   Clear
10:35 AM 22.8 °F 13.6 °F 11.8 °F 63% 30.09 in 10.0 mi NNW 8.1 mph - N/A   Clear
10:55 AM 22.8 °F 14.5 °F 10.8 °F 60% 30.10 in 10.0 mi North 6.9 mph - N/A   Clear
11:15 AM 25.3 °F 18.5 °F 12.4 °F 58% 30.10 in 10.0 mi North 5.8 mph - N/A   Clear
11:35 AM 25.3 °F 19.7 °F 11.5 °F 56% 30.11 in 10.0 mi WNW 4.6 mph - N/A   Scattered Clouds
11:55 AM 25.3 °F 16.7 °F 10.6 °F 54% 30.12 in 10.0 mi WNW 8.1 mph - N/A   Scattered Clouds
12:15 PM 27.9 °F 22.6 °F 11.5 °F 50% 30.12 in 10.0 mi WNW 4.6 mph - N/A   Mostly Cloudy
12:35 PM 26.2 °F 18.6 °F 10.8 °F 52% 30.11 in 10.0 mi NNW 6.9 mph - N/A   Overcast
12:55 PM 27.9 °F 19.8 °F 11.5 °F 50% 30.11 in 10.0 mi West 8.1 mph - N/A   Overcast
1:15 PM 27.9 °F 21.5 °F 10.6 °F 48% 30.10 in 10.0 mi WNW 5.8 mph - N/A   Mostly Cloudy
1:35 PM 27.9 °F 19.1 °F 12.2 °F 52% 30.10 in 10.0 mi WSW 9.2 mph - N/A   Mostly Cloudy
1:55 PM 27.9 °F 18.4 °F 11.7 °F 51% 30.11 in 10.0 mi WNW 10.4 mph - N/A   Mostly Cloudy
2:15 PM 27.9 °F 17.3 °F 12.0 °F 52% 30.10 in 10.0 mi West 12.7 mph - N/A   Scattered Clouds
2:35 PM 27.9 °F 19.8 °F 12.0 °F 52% 30.11 in 10.0 mi West 8.1 mph - N/A   Scattered Clouds
2:55 PM 27.9 °F 18.4 °F 11.8 °F 51% 30.11 in 10.0 mi WNW 10.4 mph 19.6 mph N/A   Scattered Clouds
3:15 PM 27.9 °F 20.6 °F 10.4 °F 48% 30.10 in 10.0 mi WNW 6.9 mph - N/A   Mostly Cloudy
3:35 PM 27.9 °F 19.8 °F 10.8 °F 49% 30.11 in 10.0 mi WNW 8.1 mph - N/A   Mostly Cloudy
3:55 PM 27.9 °F 21.5 °F 11.1 °F 50% 30.10 in 10.0 mi WNW 5.8 mph - N/A   Scattered Clouds
4:15 PM 27.9 °F 21.5 °F 11.7 °F 51% 30.10 in 10.0 mi WNW 5.8 mph - N/A   Clear
4:35 PM 27.9 °F 19.8 °F 11.8 °F 51% 30.12 in 10.0 mi West 8.1 mph - N/A   Clear
4:55 PM 26.8 °F 19.3 °F 11.7 °F 53% 30.12 in 10.0 mi West 6.9 mph - N/A   Clear
5:15 PM 27.9 °F 22.6 °F 12.9 °F 54% 30.12 in 10.0 mi West 4.6 mph - N/A   Clear
5:35 PM 27.9 °F 24.0 °F 13.1 °F 54% 30.12 in 10.0 mi West 3.5 mph - N/A   Clear
5:55 PM 27.5 °F 22.2 °F 13.3 °F 55% 30.12 in 10.0 mi WSW 4.6 mph - N/A   Clear
6:15 PM 25.3 °F 21.1 °F 12.2 °F 58% 30.11 in 10.0 mi WSW 3.5 mph - N/A   Clear
6:35 PM 25.3 °F - 12.2 °F 58% 30.12 in 10.0 mi Calm Calm - N/A   Clear
6:55 PM 25.3 °F 21.1 °F 12.0 °F 57% 30.12 in 10.0 mi West 3.5 mph - N/A   Clear
7:15 PM 25.3 °F - 12.2 °F 58% 30.11 in 10.0 mi Calm Calm - N/A   Clear
7:35 PM 25.3 °F - 12.2 °F 58% 30.11 in 10.0 mi Calm Calm - N/A   Clear
7:55 PM 20.3 °F - 10.9 °F 67% 30.11 in 10.0 mi Calm Calm - N/A   Clear
8:15 PM 21.6 °F - 12.2 °F 67% 30.10 in 10.0 mi Calm Calm - N/A   Scattered Clouds
8:35 PM 20.1 °F - 13.6 °F 76% 30.09 in 10.0 mi Calm Calm - N/A   Scattered Clouds
8:55 PM 20.1 °F - 14.0 °F 77% 30.09 in 10.0 mi Calm Calm - N/A   Mostly Cloudy
9:15 PM 19.2 °F - 13.3 °F 78% 30.09 in 10.0 mi Calm Calm - N/A   Mostly Cloudy
9:35 PM 20.3 °F 15.4 °F 13.1 °F 74% 30.10 in 10.0 mi WSW 3.5 mph - N/A   Overcast
9:55 PM 19.0 °F - 12.9 °F 77% 30.10 in 10.0 mi Calm Calm - N/A   Overcast
10:15 PM 20.7 °F - 13.8 °F 75% 30.09 in 10.0 mi Calm Calm - N/A   Overcast
10:35 PM 20.3 °F 15.4 °F 13.5 °F 75% 30.10 in 10.0 mi SW 3.5 mph - N/A   Overcast
10:55 PM 22.5 °F - 14.5 °F 72% 30.09 in 10.0 mi Calm Calm - N/A   Overcast
11:15 PM 21.6 °F - 14.0 °F 73% 30.09 in 10.0 mi Calm Calm - N/A   Overcast
11:35 PM 22.5 °F - 15.3 °F 74% 30.08 in 10.0 mi Calm Calm - N/A   Overcast
11:55 PM 25.3 °F - 17.1 °F 71% 30.07 in 10.0 mi Calm Calm - N/A   Overcast